Regional Weather Roundup
Issued by NWS

Home | Current Version | Previous Version | Text Only | Print | Product List | Glossary On
Versions: 1 2 3 4 5 6 7 8 9 10 11 12 13 14 15 16 17 18 19 20 21 22 23 24 25 26 27
000
ASUS46 KSEW 240110
RWRWA

WASHINGTON REGIONAL WEATHER ROUNDUP
NATIONAL WEATHER SERVICE SEATTLE WA
600 PM PDT MON OCT 23 2017

NOTE:"FAIR" INDICATES FEW OR NO CLOUDS BELOW 12,000 FEET WITH NO
SIGNIFICANT WEATHER AND/OR OBSTRUCTIONS TO VISIBILITY.

WAZ507-509-555>559-240200-
SEATTLE, TACOMA, EVERETT, AND VICINITY

CITY           SKY/WX    TMP DP  RH WIND       PRES   REMARKS
EVERETT        CLOUDY    59  46  62 W3        30.63S
BOEING FIELD   MOCLDY    62  45  53 NW5       30.61S
RENTON         CLOUDY    62  49  62 NW6       30.61R
SEATAC AIRPORT MOCLDY    62  45  53 NW3       30.62S
JBLM-MCCHORD   CLEAR     61  47  61 CALM      30.61S
PUYALLUP       FAIR      59  50  72 CALM      30.61S
BREMERTON      MOCLDY    54  48  82 CALM      30.62S HAZE
JBLM-FT LEWIS  CLEAR     60  50  71 NW5       30.60S
TACOMA NARROWS PTCLDY    59  45  59 N3        30.61F
$$

WAZ001-503-506-510-514-515-240200-
NORTH INTERIOR

CITY           SKY/WX    TMP DP  RH WIND       PRES   REMARKS
BELLINGHAM     CLOUDY    57  48  72 NE6       30.64R
FRIDAY HARBOR  CLOUDY    56  50  80 CALM      30.65R
EASTSOUND      CLOUDY    54  50  87 NW3       30.64S HAZE
PORT ANGELES   CLOUDY    52  46  80 CALM      30.64R
EDIZ HOOK      CLOUDY    50  48  93 CALM      30.64R
PORT TOWNSEND  CLOUDY    55  48  76 W3        30.63R
NAS WHIDBEY    CLOUDY    59  46  62 N6        30.67R
ARLINGTON      CLOUDY    58  48  69 N8        30.64R
BURLINGTON     HAZE      59  48  67 N6        30.64R VSB 1/2
$$

WAZ020-022-039-040-504-511-512-240200-
SOUTHWEST INTERIOR

CITY           SKY/WX    TMP DP  RH WIND       PRES   REMARKS
SHELTON        CLOUDY    61  48  62 N3        30.59S
OLYMPIA        CLEAR     59  48  67 N7        30.60S
CHEHALIS       FAIR      59  55  88 CALM      30.59S
KELSO          CLEAR     62  52  69 CALM      30.58F
VANCOUVER      CLEAR     65  52  62 CALM      30.55F
SCAPPOOSE, OR  CLEAR     59  53  80 W3        30.55F
PORTLAND, OR   CLEAR     62  53  72 NW3       30.56F
$$

WAZ021-516-517-240200-
WASHINGTON COAST

CITY           SKY/WX    TMP DP  RH WIND       PRES   REMARKS
FORKS          CLOUDY    60  52  74 CALM      30.59R
HOQUIAM        CLEAR     63  49  60 N7        30.59R
ASTORIA, OR    CLEAR     61  52  72 NE7       30.55F
$$

WAZ019-023-024-040-567>569-240200-
CASCADE MOUNTAINS AND COLUMBIA GORGE

CITY           SKY/WX    TMP DP  RH WIND       PRES   REMARKS
STAMPEDE PASS  CLEAR     43  40  89 CALM      30.66S
TROUTDALE, OR  CLEAR     63  54  72 N3        30.55F
HOOD RIVER, OR CLEAR     59  46  63 CALM      30.62S
THE DALLES, OR CLEAR     62  47  57 CALM      30.62S
$$

WAZ026-027-041>044-520-521-240200-
EAST SLOPES

CITY           SKY/WX    TMP DP  RH WIND       PRES   REMARKS
OMAK           MOCLDY    53  38  56 SW6       30.66R
WENATCHEE      PTCLDY    56  38  50 SE7       30.65R
ELLENSBURG     PTCLDY    55  38  52 E6        30.65S
YAKIMA         CLEAR     58  41  53 S3        30.65S
SUNNYSIDE ARPT CLEAR     59  41  52 CALM      30.65S
YAKIMA TC      FAIR      56  36  45 CALM      30.63S
$$

WAZ028-034-035-240200-
COLUMBIA BASIN

CITY           SKY/WX    TMP DP  RH WIND       PRES   REMARKS
EPHRATA        PTCLDY    54  32  43 SE5       30.66R
MOSES LAKE     MOCLDY    57  37  47 S3        30.66S
PASCO          PTCLDY    60  45  57 E5        30.66S
RICHLAND ARPT  PTCLDY    60  45  56 E3        30.65F
HERMISTON, OR  PTCLDY    59  46  62 CALM      30.64S
$$

WAZ036>038-240200-
NORTHEAST WASHINGTON

CITY           SKY/WX    TMP DP  RH WIND       PRES   REMARKS
SPOKANE GEIGER PTCLDY    51  39  63 SW6       30.67S
SPOKANE FELTS  PTCLDY    49  39  68 N3        30.68R
FAIRCHILD AFB  CLEAR     50  38  64 S3        30.67R
COEURDALENE,ID CLEAR     49  38  65 CALM      30.68R
DEER PARK      PTCLDY    44  39  82 NE3       30.68S
$$

WAZ029>033-240200-
SOUTHEAST WASHINGTON

CITY           SKY/WX    TMP DP  RH WIND       PRES   REMARKS
PULLMAN        PTCLDY    53  38  56 N3        30.69S
LEWISTON, ID   PTCLDY    58  39  49 CALM      30.67S
WALLA WALLA    PTCLDY    60  43  53 NE3       30.65F
PENDLETON, OR  PTCLDY    56  42  59 N5        30.64F
$$




USA.gov is the U.S. government's official web portal to all federal, state and local government web resources and services.